Silver City, NM

2:08 PM MST on December 11, 2017 (GMT -0700)
Grant County

Weather History for KSVC - March, 2014

Change the Weather History Date:

Wednesday, March 12, 2014

  Actual Average (KDMN) Record (KDMN)
Temperature  
Mean Temperature 42 °F -  
Max Temperature 55 °F 69 °F 90 °F (1989)
Min Temperature 28 °F 32 °F 18 °F (1959)
Degree Days  
Heating Degree Days 24    
Moisture  
Dew Point 17 °F    
Average Humidity 36    
Maximum Humidity 64    
Minimum Humidity 22    
Precipitation  
Precipitation 0.00 in - - ()
Sea Level Pressure  
Sea Level Pressure 30.22 in    
Wind  
Wind Speed 10 mph (ESE)    
Max Wind Speed 25 mph    
Max Gust Speed 40 mph    
Visibility 10 miles    
Events      
Averages and records for this station are not official NWS values.
T = Trace of Precipitation, MM = Missing Value Source: NWS Daily Summary

Daily Weather History Graph

Daily Weather History Graph

Search for Another Location

Airport or City:

Trip Planner

Search our weather history database for the weather conditions in past years. The results will help you decide how hot, cold, wet, or windy it might be!

Date:

Astronomy

Mar. 12, 2014 Rise Set
Actual Time 7:26 AM MDT 7:18 PM MDT
Civil Twilight 7:02 AM MDT 7:43 PM MDT
Nautical Twilight 6:33 AM MDT 8:11 PM MDT
Astronomical Twilight 6:04 AM MDT 8:40 PM MDT
Moon 4:00 PM MDT (3/12) 4:50 AM MDT (3/12)
Length of Visible Light 12h 40m
Length of Day
11h 51m
Waxing Gibbous, 86% of the Moon is Illuminated
Mar 12
Waxing Gibbous
Mar 16
Full
Mar 23
Last Quarter
Mar 30
New
Apr 7
First Quarter

Hourly Weather History & Observations

Time (MDT) Temp. Windchill Dew Point Humidity Pressure Visibility Wind Dir Wind Speed Gust Speed Precip Events Conditions
12:15 AM 42.8 °F 38.6 °F 17.6 °F 36% 30.07 in 10.0 mi NNW 6.9 mph - N/A   Clear
12:35 AM 44.6 °F 37.8 °F 17.6 °F 34% 30.07 in 10.0 mi NW 15.0 mph - N/A   Clear
12:55 AM 42.8 °F 36.2 °F 17.6 °F 36% 30.08 in 10.0 mi NNE 12.7 mph - N/A   Clear
1:15 AM 41.0 °F 35.2 °F 17.6 °F 39% 30.09 in 10.0 mi North 9.2 mph - N/A   Clear
1:35 AM 39.2 °F 32.5 °F 17.6 °F 42% 30.09 in 10.0 mi NNW 10.4 mph - N/A   Clear
1:55 AM 41.0 °F 34.7 °F 17.6 °F 39% 30.09 in 10.0 mi North 10.4 mph - N/A   Clear
2:15 AM 39.2 °F 33.0 °F 17.6 °F 42% 30.09 in 10.0 mi North 9.2 mph - N/A   Clear
2:35 AM 37.4 °F 30.3 °F 17.6 °F 45% 30.09 in 10.0 mi NNW 10.4 mph - N/A   Clear
2:55 AM 37.4 °F 30.3 °F 19.4 °F 48% 30.09 in 10.0 mi NNW 10.4 mph - N/A   Clear
3:15 AM 39.2 °F 33.6 °F 19.4 °F 45% 30.10 in 10.0 mi NNE 8.1 mph - N/A   Clear
3:35 AM 37.4 °F 30.8 °F 17.6 °F 45% 30.09 in 10.0 mi North 9.2 mph - N/A   Clear
3:55 AM 37.4 °F 34.9 °F 17.6 °F 45% 30.09 in 10.0 mi NNW 3.5 mph - N/A   Clear
4:15 AM 33.8 °F 29.6 °F 17.6 °F 52% 30.10 in 10.0 mi NNW 4.6 mph - N/A   Clear
4:35 AM 32.0 °F 26.4 °F 17.6 °F 55% 30.10 in 10.0 mi NNW 5.8 mph - N/A   Clear
4:55 AM 33.8 °F - 19.4 °F 56% 30.12 in 10.0 mi Calm Calm - N/A   Clear
5:15 AM 32.0 °F - 17.6 °F 55% 30.13 in 10.0 mi Calm Calm - N/A   Clear
5:35 AM 32.0 °F - 17.6 °F 55% 30.13 in 10.0 mi Calm Calm - N/A   Clear
5:55 AM 28.4 °F 23.3 °F 17.6 °F 64% 30.14 in 10.0 mi West 4.6 mph - N/A   Clear
6:15 AM 32.0 °F 28.7 °F 19.4 °F 60% 30.16 in 10.0 mi WSW 3.5 mph - N/A   Clear
6:35 AM 32.0 °F - 17.6 °F 55% 30.18 in 10.0 mi Calm Calm - N/A   Clear
6:55 AM 32.0 °F - 17.6 °F 55% 30.18 in 10.0 mi Calm Calm - N/A   Clear
7:15 AM 32.0 °F 26.4 °F 17.6 °F 55% 30.20 in 10.0 mi SE 5.8 mph - N/A   Clear
7:35 AM 33.8 °F 28.6 °F 17.6 °F 52% 30.21 in 10.0 mi East 5.8 mph - N/A   Clear
7:55 AM 35.6 °F 31.7 °F 17.6 °F 48% 30.23 in 10.0 mi East 4.6 mph - N/A   Clear
8:15 AM 32.0 °F 27.5 °F 19.4 °F 60% 30.24 in 10.0 mi NW 4.6 mph - N/A   Clear
8:35 AM 37.4 °F 33.8 °F 19.4 °F 48% 30.25 in 10.0 mi NW 4.6 mph - N/A   Clear
8:55 AM 39.2 °F - 17.6 °F 42% 30.26 in 10.0 mi Calm Calm - N/A   Clear
9:15 AM 41.0 °F - 17.6 °F 39% 30.27 in 10.0 mi Calm Calm - N/A   Clear
9:35 AM 46.4 °F 39.2 °F 15.8 °F 29% 30.28 in 10.0 mi ESE 18.4 mph 24.2 mph N/A   Clear
9:55 AM 48.2 °F - 15.8 °F 27% 30.29 in 10.0 mi SE 19.6 mph 26.5 mph N/A   Clear
10:15 AM 48.2 °F - 15.8 °F 27% 30.30 in 10.0 mi SE 21.9 mph 32.2 mph N/A   Clear
10:35 AM 48.2 °F - 15.8 °F 27% 30.30 in 10.0 mi SE 19.6 mph 26.5 mph N/A   Clear
10:55 AM 48.2 °F - 17.6 °F 30% 30.31 in 10.0 mi SE 16.1 mph 24.2 mph N/A   Clear
11:15 AM 48.2 °F - 17.6 °F 30% 30.31 in 10.0 mi SE 18.4 mph 24.2 mph N/A   Clear
11:35 AM 48.2 °F - 17.6 °F 30% 30.31 in 10.0 mi SE 10.4 mph 20.7 mph N/A   Clear
11:55 AM 50.0 °F - 17.6 °F 28% 30.31 in 10.0 mi SSE 21.9 mph 28.8 mph N/A   Clear
12:15 PM 50.0 °F - 17.6 °F 28% 30.31 in 10.0 mi SSE 20.7 mph 28.8 mph N/A   Clear
12:35 PM 50.0 °F - 17.6 °F 28% 30.30 in 10.0 mi SE 21.9 mph 28.8 mph N/A   Clear
12:55 PM 51.8 °F - 17.6 °F 26% 30.30 in 10.0 mi SSE 18.4 mph 40.3 mph N/A   Clear
1:15 PM 51.8 °F - 17.6 °F 26% 30.29 in 10.0 mi SE 21.9 mph 29.9 mph N/A   Clear
1:35 PM 50.0 °F - 17.6 °F 28% 30.28 in 10.0 mi SSE 25.3 mph - N/A   Clear
1:55 PM 50.0 °F - 17.6 °F 28% 30.27 in 10.0 mi SE 19.6 mph 26.5 mph N/A   Clear
2:15 PM 53.6 °F - 17.6 °F 24% 30.26 in 10.0 mi SE 16.1 mph 25.3 mph N/A   Clear
2:35 PM 53.6 °F - 17.6 °F 24% 30.25 in 10.0 mi SE 15.0 mph 26.5 mph N/A   Clear
2:55 PM 53.6 °F - 17.6 °F 24% 30.25 in 10.0 mi SE 13.8 mph 25.3 mph N/A   Clear
3:15 PM 53.6 °F - 17.6 °F 24% 30.24 in 10.0 mi SE 13.8 mph 23.0 mph N/A   Clear
3:35 PM 53.6 °F - 17.6 °F 24% 30.24 in 10.0 mi ESE 16.1 mph 23.0 mph N/A   Clear
3:55 PM 53.6 °F - 17.6 °F 24% 30.23 in 10.0 mi SE 13.8 mph 25.3 mph N/A   Clear
4:15 PM 53.6 °F - 17.6 °F 24% 30.23 in 10.0 mi SE 19.6 mph 26.5 mph N/A   Clear
4:35 PM 55.4 °F - 17.6 °F 23% 30.23 in 10.0 mi SE 12.7 mph 23.0 mph N/A   Clear
4:55 PM 53.6 °F - 17.6 °F 24% 30.22 in 10.0 mi SE 15.0 mph 23.0 mph N/A   Clear
5:15 PM 53.6 °F - 17.6 °F 24% 30.22 in 10.0 mi SE 15.0 mph 23.0 mph N/A   Clear
5:35 PM 53.6 °F - 17.6 °F 24% 30.22 in 10.0 mi SE 17.3 mph 23.0 mph N/A   Clear
5:55 PM 53.6 °F - 17.6 °F 24% 30.22 in 10.0 mi SE 17.3 mph 21.9 mph N/A   Clear
6:15 PM 53.6 °F - 15.8 °F 22% 30.22 in 10.0 mi SE 15.0 mph 20.7 mph N/A   Clear
6:35 PM 51.8 °F - 15.8 °F 24% 30.22 in 10.0 mi SSE 15.0 mph - N/A   Clear
6:55 PM 50.0 °F - 15.8 °F 26% 30.23 in 10.0 mi SSE 15.0 mph - N/A   Clear
7:15 PM 48.2 °F - 15.8 °F 27% 30.24 in 10.0 mi SE 12.7 mph - N/A   Clear
7:35 PM 48.2 °F - 15.8 °F 27% 30.24 in 10.0 mi SSE 11.5 mph - N/A   Clear
7:55 PM 46.4 °F 42.4 °F 15.8 °F 29% 30.25 in 10.0 mi SE 8.1 mph - N/A   Clear
8:15 PM 44.6 °F 40.2 °F 15.8 °F 31% 30.25 in 10.0 mi SE 8.1 mph - N/A   Clear
8:35 PM 42.8 °F 38.6 °F 15.8 °F 34% 30.26 in 10.0 mi ESE 6.9 mph - N/A   Clear
8:55 PM 42.8 °F 38.0 °F 15.8 °F 34% 30.26 in 10.0 mi ESE 8.1 mph - N/A   Clear
9:15 PM 42.8 °F 37.0 °F 15.8 °F 34% 30.26 in 10.0 mi ESE 10.4 mph - N/A   Clear
9:35 PM 42.8 °F 37.0 °F 15.8 °F 34% 30.27 in 10.0 mi ESE 10.4 mph - N/A   Clear
9:55 PM 42.8 °F 37.0 °F 14.0 °F 31% 30.27 in 10.0 mi East 10.4 mph - N/A   Clear
10:15 PM 42.8 °F 37.0 °F 14.0 °F 31% 30.27 in 10.0 mi ESE 10.4 mph - N/A   Clear
10:35 PM 42.8 °F 37.0 °F 14.0 °F 31% 30.28 in 10.0 mi ESE 10.4 mph - N/A   Clear
10:55 PM 41.0 °F 37.1 °F 14.0 °F 33% 30.28 in 10.0 mi SE 5.8 mph - N/A   Clear
11:15 PM 39.2 °F 33.0 °F 14.0 °F 36% 30.28 in 10.0 mi East 9.2 mph - N/A   Clear
11:35 PM 39.2 °F 33.0 °F 15.8 °F 39% 30.28 in 10.0 mi East 9.2 mph - N/A   Clear
11:55 PM 39.2 °F 33.6 °F 15.8 °F 39% 30.27 in 10.0 mi East 8.1 mph - N/A   Clear